TimeCST,TemperatureF,Dew PointF,Humidity,Sea Level PressureIn,VisibilityMPH,Wind Direction,Wind SpeedMPH,Gust SpeedMPH,PrecipitationIn,Events,Conditions,WindDirDegrees,DateUTC
12:54 AM,12.9,5.0,71,30.43,10.0,South,5.8,-,N/A,,Overcast,180,2013-01-22 06:54:00
1:54 AM,12.9,6.1,74,30.43,10.0,SSW,3.5,-,N/A,,Overcast,210,2013-01-22 07:54:00
2:54 AM,12.9,6.1,74,30.43,6.0,SSW,3.5,-,N/A,,Haze,210,2013-01-22 08:54:00
3:17 AM,12.2,6.8,79,30.36,3.0,SSE,3.5,-,0.00,Snow,Light Snow,160,2013-01-22 09:17:00
3:25 AM,12.2,6.8,79,30.35,2.0,South,4.6,-,0.01,Snow,Light Snow,180,2013-01-22 09:25:00
3:34 AM,12.2,6.8,79,30.35,3.0,South,3.5,-,0.01,Snow,Light Snow,180,2013-01-22 09:34:00
3:54 AM,12.9,7.0,77,30.41,10.0,SSE,3.5,-,0.01,,Overcast,160,2013-01-22 09:54:00
4:54 AM,10.9,6.1,81,30.40,10.0,SE,3.5,-,N/A,,Mostly Cloudy,140,2013-01-22 10:54:00
5:54 AM,12.0,6.1,77,30.39,10.0,SSE,5.8,-,N/A,,Clear,160,2013-01-22 11:54:00
6:54 AM,12.9,6.1,74,30.41,10.0,SSE,3.5,-,N/A,,Overcast,160,2013-01-22 12:54:00
7:54 AM,12.9,7.0,77,30.43,9.0,ESE,4.6,-,N/A,,Partly Cloudy,110,2013-01-22 13:54:00
8:54 AM,12.9,7.0,77,30.44,10.0,ESE,6.9,-,N/A,,Scattered Clouds,110,2013-01-22 14:54:00
9:54 AM,15.1,6.1,68,30.45,10.0,East,6.9,-,N/A,,Clear,100,2013-01-22 15:54:00
10:54 AM,16.0,6.1,65,30.45,10.0,SE,5.8,-,N/A,,Clear,130,2013-01-22 16:54:00
11:54 AM,17.1,6.1,62,30.42,10.0,SSE,6.9,-,N/A,,Clear,150,2013-01-22 17:54:00
12:54 PM,19.0,7.0,59,30.38,10.0,SE,5.8,-,N/A,,Clear,130,2013-01-22 18:54:00
1:54 PM,21.0,8.1,57,30.34,10.0,South,8.1,-,N/A,,Clear,170,2013-01-22 19:54:00
2:54 PM,23.0,9.0,55,30.32,10.0,South,8.1,-,N/A,,Clear,180,2013-01-22 20:54:00
3:54 PM,23.0,10.9,60,30.32,10.0,South,8.1,-,N/A,,Clear,180,2013-01-22 21:54:00
4:54 PM,21.9,10.9,63,30.32,10.0,South,4.6,-,N/A,,Clear,180,2013-01-22 22:54:00
5:54 PM,21.0,10.9,65,30.32,10.0,SSE,3.5,-,N/A,,Clear,160,2013-01-22 23:54:00
6:54 PM,19.0,10.0,68,30.33,10.0,Calm,Calm,-,N/A,,Clear,0,2013-01-23 00:54:00
7:54 PM,16.0,10.9,81,30.31,10.0,SSE,3.5,-,N/A,,Clear,160,2013-01-23 01:54:00
8:54 PM,16.0,10.0,77,30.32,10.0,Calm,Calm,-,N/A,,Clear,0,2013-01-23 02:54:00
9:54 PM,16.0,10.0,77,30.31,10.0,South,5.8,-,N/A,,Clear,190,2013-01-23 03:54:00
10:54 PM,16.0,9.0,74,30.31,10.0,Calm,Calm,-,N/A,,Clear,0,2013-01-23 04:54:00
11:54 PM,15.1,9.0,77,30.31,10.0,SSE,3.5,-,N/A,,Clear,150,2013-01-23 05:54:00